SL-16 DEB, 22331

Orbit data source: Space-Track

SL-16 DEB, 22331 is space debris in LEO originally from a launch on Fri, 25 Dec 1992 UTC launched from the Tyuratam Missile And Space Complex (TTMTR). Debris objects in space refer to the collection of defunct objects orbiting the Earth. Examples of debris include non-operational satellites, rocket bodies, and fragments generated from explosions, collisions, or faulty payload assembly.

Loading next visibility...
Identifier
22331, 1992-093U
Orbit
LEO
Country
Flag of CISCIS
Related business
Manufacturer
Unknown
Mission
Spacecraft
Bus & Motor
Unknown
Mass
Unknown
Launch date (UTC)
1992-12-25 (33 years ago)
Launch vehicle
Unknown
Launch site
Tyuratam Missile And Space Complex (TTMTR)
Object type
Payload
Rocket body
Debris
Shape & HBR
Unknown shape, 0.5 m
Radar Cross Section
Medium (>0.1 m² and <1 m²)

Expand to show TLE details & history
Last TLE update: 10 hours ago

TLE from 10 hours ago
0 SL-16 DEB
1 22331U 92093U   26037.01359096  .00000142  00000-0  11435-3 0  9999
2 22331  70.9226  23.8280 0074514 126.9629 297.6310 14.04976352696659
Epoch: 2026-02-06T00:19Z
TLE epoch observation values (Epoch: 2026-02-06T00:19:34.258Z)
Latitude
58.12987°
Longitude
-83.62683°
Altitude
861.111 km
Speed
7.44 km/s
True Right ascension
03h 49m 41s
True Declination
57° 58' 40"
Sunlit
Object was in daylight at epoch
Visualization orbit readout
Latitude
Unknown
Longitude
Unknown
Altitude
Unknown
Speed
Unknown
Apparent Right ascension
Unknown
Apparent Declination
Unknown
Sunlit
N/A
Visualization observer readout
Local Sidereal Time
12:06:39
Azimuth
Unknown
Elevation
Unknown
Doppler factor
Unknown
Orbital elements
Apogee altitude
928.599 km
Perigee altitude
820.513 km
Semi-major axis
7,252.693 km
Eccentricity
0.00745
Inclination
70.9226°
RAAN
23.828°
Arg. of periapsis
126.9629°
True anomaly
296.87125°
Mean anomaly
297.631°
Eccentric anomaly
297.25145°
Mean motion
3.51394 °/min
Orbital period
102.45 mins
BSTAR
0.00011435
Loading maneuver chart data...
Computing Atmospheric mass density...
Loading historical data...
Loading historical data...
Loading historical data...
Loading historical data...
Loading historical data...
Loading historical data...
Loading historical data...

Documentation

Showing up to 5 results
|